Location: Marcé
(47.5801°N, 0.3280°W)
Time: 09:02:33
(UTC+01:00)

Vanguard 1 - Pass Details

Date: 08 December 2021
Orbit: 652 x 3830 km, 34.2° (Epoch: 24 January)

Event Time Altitude Azimuth Distance (km) Brightness Sun altitude
Rises 20:13:56 0° 170° (S) 6,094 14.0 -30.0°
Reaches altitude 10° 20:21:15 10° 147° (SSE) 5,776 13.7 -31.2°
Enters shadow 20:22:57 12° 141° (SE) 5,783 13.6 -31.5°
Maximum altitude 20:28:34 14° 123° (ESE) 6,000 - -32.5°
Drops below altitude 10° 20:36:51 10° 100° (E) 6,730 - -33.9°
Sets 20:46:59 0° 80° (E) 7,975 - -35.6°
